[[{"header":{"parameterUnit":"m.s-1","parameterCategory":1,"la1":30.2991,"la2":30.254,"lo1":-89.0895,"lo2":-89.0444,"dy":0.0017,"dx":0.0017,"nx":28,"ny":28,"refTime":"2025-07-03T03:00:00:Z","depth":0,"parameterNumber":2,"parameterNumberName":"U-component_of_WINDS"},"data":[0,0,0,0,0,0,0,0,0,0,0,0,0,0,0,0,0,0,0,0,0,0,0,0,0,0,0,0,0,0,0,0,0,0,0,0,0,0,0,0,0,0,0,0,0,0,0,0,0,0,0,0,0,0,0,0,0,0,0.1715,0.1715,0,0.1681,0.168,0.168,0.1691,0.1692,0.1693,0.1694,0.1657,0.1655,0.1654,0,0,0,0,0,0,0,0,0,0,0,0,0,0.179,0.1789,0.1716,0.1715,0.1715,0.1681,0.168,0.168,0.1691,0.1692,0.1693,0.1694,0.1658,0.1656,0.1654,0,0,0,0,0,0,0,0,0,0,0,0,0,0.1757,0.1788,0.1716,0.1716,0.1716,0.1681,0.168,0.168,0.1691,0.1692,0.1693,0.1694,0.1658,0.1656,0.1653,0.1615,0,0,0.1646,0.1644,0,0,0,0,0,0,0,0,0.1759,0.1754,0.1717,0.1716,0.1716,0.1692,0.1693,0.1658,0.1691,0.1701,0.1694,0.1695,0.1668,0.1664,0.1655,0.1613,0.1612,0.1645,0.1644,0.1643,0.1642,0,0,0,0,0,0,0,0.1761,0.1756,0.1702,0.1716,0.1716,0.1718,0.1714,0.1687,0.1678,0.17,0.1701,0.1696,0.1667,0.1658,0.1655,0.1611,0.1645,0.1643,0.1642,0.1641,0.1535,0.1534,0,0,0,0,0,0,0.1764,0.1757,0.1703,0.1701,0.174,0.1716,0.1712,0.1698,0.1678,0.1677,0.1695,0.1697,0.1661,0.1657,0.1653,0.1606,0.1643,0.164,0.1639,0.1537,0.1535,0.1534,0,0,0,0,0,0,0.1765,0.1759,0.1704,0.1729,0.1723,0.1713,0.1698,0.1697,0.1687,0.1675,0.1674,0.1687,0.1662,0.1657,0.1624,0.1605,0.1639,0.1637,0.1538,0.1536,0.1534,0.1513,0,0,0,0,0,0,0.1767,0.1759,0.1745,0.1729,0.1721,0.1676,0.1697,0.1695,0.1683,0.1685,0.1667,0.1665,0.1663,0.1628,0.1622,0.1602,0.1635,0.154,0.1537,0.1535,0.1515,0.151,0.1506,0,0,0,0,0,0.177,0.174,0.1744,0.1738,0.1703,0.1675,0.1671,0.1669,0.1681,0.1667,0.1659,0.1666,0.1609,0.1625,0.1618,0.1597,0.1541,0.1538,0.1535,0.1517,0.1511,0.1506,0,0,0,0,0,0,0.1754,0.1738,0.1742,0.1707,0.1692,0.1677,0.1658,0.1663,0.1644,0.1647,0.1645,0.1641,0.1607,0.1599,0.1617,0.1559,0.1577,0.1572,0.1565,0.1559,0.1555,0.1557,0.1633,0,0,0,0,0,0.1746,0.1725,0.1713,0.1682,0.1675,0.1668,0.1656,0.1656,0.164,0.1634,0.1624,0.1609,0.1587,0.1573,0.1553,0.1514,0.151,0.1497,0.1492,0.1489,0.1484,0.1462,0.1456,0.1524,0.1524,0.1524,0,0,0.173,0.1719,0.1706,0.1679,0.1667,0.1645,0.1663,0.1638,0.1621,0.163,0.1599,0.1591,0.1574,0.1538,0.1521,0.153,0.1465,0.1485,0.1482,0.148,0.1459,0.1452,0.1446,0.1522,0.1523,0.1523,0,0,0.1689,0.1679,0.1652,0.164,0.1623,0.1619,0.1613,0.1597,0.1592,0.156,0.1566,0.1546,0.151,0.1497,0.1485,0.1439,0.1444,0.1433,0.1409,0.1387,0.1382,0.1377,0.1359,0.1353,0.1429,0.1429,0.1429,0,0.1671,0.1638,0.1638,0.1612,0.16,0.1608,0.158,0.1568,0.1545,0.1536,0.1546,0.15,0.1489,0.145,0.1438,0.143,0.1421,0.1434,0.1383,0.1378,0.1373,0.1356,0.135,0.1427,0.1427,0.1428,0.1428,0,0.1616,0.1593,0.1573,0.155,0.1536,0.151,0.1505,0.149,0.1491,0.1486,0.1453,0.144,0.1417,0.1408,0.1409,0.1368,0.1374,0.1383,0.1401,0.1365,0.1349,0.1343,0.1425,0.1426,0.1426,0.1427,0,0,0.1563,0.154,0.1533,0.1522,0.1504,0.1486,0.146,0.1437,0.1424,0.1408,0.1385,0.1354,0.1363,0.135,0.135,0.1331,0.1294,0.1343,0.1342,0.1333,0.1246,0.1238,0.1231,0.1298,0.1296,0.1295,0.1247,0,0.1519,0.1473,0.1472,0.143,0.1407,0.1414,0.1391,0.1377,0.1371,0.1352,0.1345,0.1322,0.1336,0.1328,0.131,0.1302,0.1276,0.1306,0.1275,0.1274,0.1278,0.1223,0.1214,0.1169,0.1241,0.124,0.1239,0,0.1462,0.1443,0.1399,0.1383,0.1374,0.1353,0.1332,0.1313,0.1297,0.1294,0.128,0.1282,0.1255,0.1274,0.1236,0.1256,0.1244,0.1238,0.1236,0.1232,0.1253,0.1215,0.1155,0.1148,0.123,0.1231,0.1231,0,0.1425,0.139,0.1359,0.135,0.1331,0.1316,0.1307,0.1292,0.1279,0.126,0.1251,0.123,0.1218,0.1201,0.1197,0.1212,0.1158,0.1178,0.1154,0.1154,0.1141,0.1142,0.1076,0.1136,0.1136,0.1136,0.1136,0,0.1376,0.1348,0.1342,0.1323,0.1291,0.129,0.1259,0.1252,0.1238,0.1217,0.1222,0.1202,0.1199,0.1178,0.1175,0.1143,0.1138,0.1134,0.1133,0.1132,0.1133,0.1123,0.1125,0.1134,0.1135,0.1135,0.1135,0,0.133,0.1325,0.1291,0.1276,0.1271,0.1249,0.1235,0.1216,0.1211,0.1184,0.1177,0.1169,0.1144,0.1139,0.111,0.1108,0.107,0.1073,0.1075,0.1075,0.105,0.1052,0.0975,0.0965,0.1033,0.1032,0.1031,0,0.1298,0.1276,0.1259,0.1245,0.1235,0.1213,0.1199,0.1197,0.1182,0.1162,0.1145,0.1121,0.1102,0.1062,0.1053,0.103,0.1032,0.1007,0.1029,0.1028,0.103,0.1031,0.1028,0.1002,0.1001,0.1001,0.1,0,0.1241,0.1239,0.1219,0.1198,0.1181,0.1164,0.1148,0.1136,0.1132,0.1115,0.109,0.1075,0.1045,0.102,0.0998,0.0989,0.0993,0.0994,0.0987,0.0985,0.0986,0.0984,0.1062,0.0995,0.0996,0.0996,0.0996,0.0997,0.12,0.1181,0.1165,0.1142,0.113,0.1114,0.1095,0.1088,0.1067,0.1042,0.1043,0.1015,0.0999,0.0969,0.0958,0.0936,0.0944,0.0934,0.0931,0.0929,0.0926,0.0991,0.0932,0.0932,0.0932,0.0933,0.0933,0,0.1142,0.1132,0.1111,0.1088,0.107,0.1077,0.1059,0.1043,0.1018,0.1003,0.0984,0.0954,0.0931,0.092,0.0896,0.0881,0.0882,0.0874,0.0875,0.0872,0.0921,0.0928,0.0873,0.0873,0.0873,0.0873,0.0873,0.0873,0.1109,0.1077,0.1074,0.1035,0.1025,0.0998,0.0987,0.0973,0.096,0.0927,0.0908,0.0901,0.0887,0.0863,0.0841,0.0838,0.0829,0.082,0.0818,0.0863,0.0869,0.0875,0.0882,0.0818,0.0818,0.0771,0.0771,0.077]},{"header":{"parameterUnit":"m.s-1","parameterCategory":1,"la1":30.2991,"la2":30.254,"lo1":-89.0895,"lo2":-89.0444,"dy":0.0017,"dx":0.0017,"nx":28,"ny":28,"refTime":"2025-07-03T03:00:00:Z","depth":0,"parameterNumber":3,"parameterNumberName":"V-component_of_WINDS"},"data":[0,0,0,0,0,0,0,0,0,0,0,0,0,0,0,0,0,0,0,0,0,0,0,0,0,0,0,0,0,0,0,0,0,0,0,0,0,0,0,0,0,0,0,0,0,0,0,0,0,0,0,0,0,0,0,0,0,0,-2.6343,-2.6345,0,-2.6483,-2.6484,-2.6486,-2.6477,-2.6475,-2.6473,-2.6471,-2.6617,-2.6622,-2.6628,0,0,0,0,0,0,0,0,0,0,0,0,0,-2.6073,-2.6078,-2.6343,-2.6345,-2.6347,-2.6482,-2.6484,-2.6486,-2.6478,-2.6475,-2.6473,-2.647,-2.6615,-2.6621,-2.6628,0,0,0,0,0,0,0,0,0,0,0,0,0,-2.6199,-2.608,-2.6343,-2.6359,-2.6362,-2.6482,-2.6484,-2.6487,-2.6478,-2.6475,-2.6472,-2.6469,-2.6612,-2.6621,-2.6629,-2.6744,0,0,-2.6656,-2.6659,0,0,0,0,0,0,0,0,-2.6192,-2.6209,-2.6355,-2.6358,-2.6361,-2.6459,-2.6442,-2.6573,-2.6479,-2.6434,-2.6471,-2.6468,-2.6567,-2.6579,-2.6612,-2.6751,-2.6757,-2.6656,-2.6662,-2.6665,-2.6668,0,0,0,0,0,0,0,-2.6183,-2.6203,-2.6398,-2.6357,-2.6361,-2.636,-2.6374,-2.6467,-2.6516,-2.6438,-2.6437,-2.6454,-2.6568,-2.6604,-2.6615,-2.6759,-2.6656,-2.6664,-2.6669,-2.6673,-2.6999,-2.7003,0,0,0,0,0,0,-2.6171,-2.6196,-2.6394,-2.6403,-2.6267,-2.6367,-2.6384,-2.6431,-2.6515,-2.6525,-2.6456,-2.6453,-2.659,-2.6605,-2.662,-2.6761,-2.6665,-2.6673,-2.6678,-2.6996,-2.7,-2.7004,0,0,0,0,0,0,-2.6165,-2.6188,-2.6388,-2.6299,-2.6325,-2.6375,-2.6429,-2.6435,-2.6471,-2.6529,-2.6538,-2.6484,-2.6589,-2.6608,-2.6713,-2.6766,-2.6677,-2.6685,-2.6992,-2.6997,-2.7002,-2.7042,0,0,0,0,0,0,-2.6157,-2.6186,-2.623,-2.63,-2.6329,-2.6478,-2.6432,-2.644,-2.6486,-2.6482,-2.6557,-2.6566,-2.6588,-2.67,-2.6722,-2.6776,-2.6692,-2.6987,-2.6994,-2.7,-2.7036,-2.7048,-2.7058,0,0,0,0,0,-2.6147,-2.6236,-2.6232,-2.6256,-2.6384,-2.6481,-2.6498,-2.652,-2.649,-2.6534,-2.6572,-2.6564,-2.6756,-2.6711,-2.6735,-2.6793,-2.6984,-2.6992,-2.7,-2.7031,-2.7045,-2.7057,0,0,0,0,0,0,-2.6171,-2.6245,-2.6242,-2.6355,-2.6412,-2.6479,-2.6536,-2.6534,-2.6601,-2.6596,-2.6621,-2.6638,-2.6744,-2.6779,-2.6727,-2.6908,-2.6866,-2.6879,-2.6882,-2.6896,-2.6906,-2.6896,-2.6699,0,0,0,0,0,-2.6189,-2.626,-2.6322,-2.6416,-2.6445,-2.6486,-2.6529,-2.6541,-2.6601,-2.6625,-2.667,-2.6729,-2.6803,-2.6851,-2.6922,-2.7041,-2.7057,-2.7092,-2.7103,-2.7112,-2.7123,-2.7189,-2.7206,-2.703,-2.703,-2.703,0,0,-2.6228,-2.6277,-2.6321,-2.6422,-2.6467,-2.6542,-2.6506,-2.6586,-2.6642,-2.6637,-2.6739,-2.6774,-2.6842,-2.6955,-2.7006,-2.6987,-2.7175,-2.7122,-2.7128,-2.7135,-2.7199,-2.7215,-2.723,-2.7035,-2.7034,-2.7033,0,0,-2.6336,-2.638,-2.6464,-2.651,-2.6579,-2.6606,-2.6626,-2.6694,-2.6717,-2.6819,-2.6818,-2.6885,-2.7011,-2.706,-2.7101,-2.7228,-2.7224,-2.7251,-2.7308,-2.7372,-2.7386,-2.7399,-2.7445,-2.7461,-2.7262,-2.7262,-2.7262,0,-2.6376,-2.6487,-2.6508,-2.6589,-2.6634,-2.6632,-2.6718,-2.6762,-2.685,-2.6882,-2.6859,-2.7018,-2.7063,-2.7187,-2.7218,-2.7252,-2.7276,-2.7243,-2.7382,-2.7395,-2.7407,-2.7452,-2.7469,-2.7265,-2.7264,-2.7264,-2.7264,0,-2.6533,-2.661,-2.667,-2.6755,-2.6807,-2.6889,-2.6923,-2.6973,-2.6981,-2.701,-2.7115,-2.717,-2.7252,-2.7283,-2.7291,-2.7409,-2.7394,-2.7376,-2.7335,-2.7426,-2.7469,-2.7486,-2.7269,-2.7268,-2.7267,-2.7266,0,0,-2.6661,-2.6756,-2.6778,-2.6817,-2.6892,-2.6953,-2.7036,-2.7116,-2.7159,-2.722,-2.7291,-2.7398,-2.7382,-2.7429,-2.7443,-2.7499,-2.7598,-2.7475,-2.7477,-2.7497,-2.7732,-2.7746,-2.7765,-2.7595,-2.7599,-2.7601,-2.7727,0,-2.6778,-2.6925,-2.6946,-2.7075,-2.7148,-2.7147,-2.722,-2.7275,-2.7304,-2.7371,-2.7404,-2.748,-2.7452,-2.7481,-2.7536,-2.7574,-2.7646,-2.7565,-2.7663,-2.7666,-2.7647,-2.7787,-2.7802,-2.7918,-2.7743,-2.7746,-2.7748,0,-2.6935,-2.6999,-2.7136,-2.7202,-2.7234,-2.7298,-2.7374,-2.7437,-2.7499,-2.7517,-2.7569,-2.7577,-2.7664,-2.7618,-2.7739,-2.7684,-2.7725,-2.775,-2.7755,-2.7766,-2.7713,-2.7803,-2.7955,-2.7973,-2.7774,-2.7772,-2.777,0,-2.7015,-2.7137,-2.7235,-2.7268,-2.7347,-2.7393,-2.7429,-2.7488,-2.7535,-2.7601,-2.7632,-2.7707,-2.7749,-2.7808,-2.7835,-2.7799,-2.7956,-2.7911,-2.7974,-2.7973,-2.8008,-2.8005,-2.817,-2.8032,-2.8032,-2.8032,-2.8031,0,-2.7145,-2.7229,-2.7272,-2.7332,-2.7427,-2.745,-2.7543,-2.7578,-2.7631,-2.7698,-2.7702,-2.7766,-2.7798,-2.7867,-2.789,-2.7987,-2.8006,-2.8024,-2.8029,-2.8024,-2.8022,-2.8052,-2.8045,-2.8036,-2.8035,-2.8034,-2.8034,0,-2.7251,-2.7284,-2.739,-2.7456,-2.7475,-2.7542,-2.7599,-2.7658,-2.7687,-2.7773,-2.7795,-2.7841,-2.7922,-2.7955,-2.8055,-2.807,-2.8183,-2.8181,-2.8162,-2.8163,-2.8224,-2.8219,-2.8415,-2.8442,-2.8286,-2.8287,-2.8288,0,-2.7332,-2.7397,-2.747,-2.7515,-2.7552,-2.7624,-2.7672,-2.7698,-2.7748,-2.7824,-2.7874,-2.7955,-2.8021,-2.8151,-2.8195,-2.8271,-2.8272,-2.8336,-2.8284,-2.8277,-2.8275,-2.8271,-2.8278,-2.8345,-2.8347,-2.8348,-2.8349,0,-2.7473,-2.7485,-2.7553,-2.7627,-2.7684,-2.7744,-2.7802,-2.7839,-2.7874,-2.793,-2.8013,-2.8064,-2.8166,-2.8246,-2.8325,-2.8363,-2.8363,-2.8365,-2.8384,-2.838,-2.8367,-2.8376,-2.8189,-2.8361,-2.836,-2.8359,-2.8358,-2.8358,-2.757,-2.7627,-2.7688,-2.7764,-2.781,-2.7864,-2.7923,-2.796,-2.8029,-2.8113,-2.8124,-2.8213,-2.8275,-2.8381,-2.8422,-2.8492,-2.8476,-2.8503,-2.851,-2.8516,-2.8521,-2.8354,-2.8507,-2.8506,-2.8506,-2.8506,-2.8506,0,-2.7711,-2.775,-2.782,-2.7901,-2.7961,-2.7954,-2.8018,-2.8069,-2.8147,-2.8204,-2.8269,-2.8365,-2.8443,-2.8492,-2.8571,-2.8619,-2.8621,-2.8639,-2.8636,-2.8645,-2.853,-2.8507,-2.8636,-2.8636,-2.8636,-2.8636,-2.8636,-2.8636,-2.7792,-2.789,-2.7909,-2.803,-2.8069,-2.8155,-2.8193,-2.8243,-2.8289,-2.8395,-2.846,-2.8491,-2.8546,-2.8629,-2.8701,-2.8713,-2.8743,-2.8763,-2.8774,-2.8666,-2.8653,-2.864,-2.8618,-2.8768,-2.8769,-2.8883,-2.8884,-2.8885]}]]